Princeton, MN

7:53 PM CST on November 12, 2019 (GMT -0600)
Princeton Municipal

Weather History for KPNM - June, 2019

Change the Weather History Date:

Tuesday, June 4, 2019

  Actual Average Record
Temperature  
Mean Temperature 72 °F -  
Max Temperature 84 °F 70 °F 89 °F (2017)
Min Temperature 59 °F 48 °F 35 °F (1998)
Cooling Degree Days 6    
Growing Degree Days 22 (Base 50)    
Moisture  
Dew Point 60 °F    
Average Humidity 75    
Maximum Humidity 94    
Minimum Humidity 51    
Precipitation  
Precipitation 0.00 in - - ()
Sea Level Pressure  
Sea Level Pressure 29.76 in    
Wind  
Wind Speed 6 mph (South)    
Max Wind Speed 20 mph    
Max Gust Speed 29 mph    
Visibility 10 miles    
Events Rain , Thunderstorm    
Averages and records for this station are not official NWS values.
T = Trace of Precipitation, MM = Missing Value Source: NWS Daily Summary

Daily Weather History Graph

Daily Weather History Graph

Search for Another Location

Airport or City:

Astronomy

Jun. 04, 2019 Rise Set
Actual Time 5:27 AM CDT 8:58 PM CDT
Civil Twilight 4:50 AM CDT 9:35 PM CDT
Nautical Twilight 4:01 AM CDT 10:25 PM CDT
Astronomical Twilight 2:57 AM CDT 11:29 PM CDT
Moon 6:38 AM CDT (6/4) 10:27 PM CDT (6/4)
Length of Visible Light 16h 45m
Length of Day
15h 30m
New Moon, 2% of the Moon is Illuminated
Jun 4
New Moon
Jun 10
First Quarter
Jun 17
Full
Jun 25
Last Quarter
Jul 2
New

Hourly Weather History & Observations

Time (CDT) Temp. Heat Index Dew Point Humidity Pressure Visibility Wind Dir Wind Speed Gust Speed Precip Events Conditions
12:16 AM 68.0 °F - 55.4 °F 64% 29.88 in 10.0 mi South 9.2 mph - N/A   Clear
12:35 AM 68.0 °F - 53.6 °F 60% 29.88 in 10.0 mi South 8.1 mph - N/A   Clear
12:55 AM 66.2 °F - 53.6 °F 64% 29.88 in 10.0 mi South 8.1 mph - N/A   Clear
1:15 AM 66.2 °F - 53.6 °F 64% 29.88 in 10.0 mi South 8.1 mph - N/A   Clear
1:16 AM 66.2 °F - 53.6 °F 64% 29.88 in 10.0 mi South 8.1 mph - N/A   Clear
1:35 AM 66.2 °F - 55.4 °F 68% 29.87 in 10.0 mi South 6.9 mph - N/A   Clear
1:36 AM 66.2 °F - 55.4 °F 68% 29.87 in 10.0 mi South 8.1 mph - N/A   Clear
1:55 AM 66.2 °F - 55.4 °F 68% 29.87 in 10.0 mi South 6.9 mph - N/A   Clear
1:57 AM 66.2 °F - 55.4 °F 68% 29.87 in 10.0 mi South 6.9 mph - N/A   Clear
2:15 AM 64.4 °F - 57.2 °F 77% 29.86 in 10.0 mi South 8.1 mph - N/A   Clear
2:16 AM 64.4 °F - 57.2 °F 77% 29.86 in 10.0 mi South 6.9 mph - N/A   Clear
2:35 AM 64.4 °F - 57.2 °F 77% 29.85 in 10.0 mi South 6.9 mph - N/A   Clear
2:55 AM 64.4 °F - 55.4 °F 73% 29.85 in 10.0 mi South 5.8 mph - N/A   Clear
2:56 AM 64.4 °F - 55.4 °F 73% 29.85 in 10.0 mi South 5.8 mph - N/A   Clear
3:15 AM 62.6 °F - 55.4 °F 77% 29.85 in 10.0 mi South 5.8 mph - N/A   Clear
3:17 AM 62.6 °F - 55.4 °F 77% 29.85 in 10.0 mi South 5.8 mph - N/A   Clear
3:35 AM 62.6 °F - 55.4 °F 77% 29.84 in 10.0 mi South 6.9 mph - N/A   Clear
3:55 AM 62.6 °F - 55.4 °F 77% 29.84 in 10.0 mi South 5.8 mph - N/A   Clear
3:56 AM 62.6 °F - 55.4 °F 77% 29.84 in 10.0 mi South 4.6 mph - N/A   Clear
4:15 AM 62.6 °F - 55.4 °F 77% 29.82 in 10.0 mi South 5.8 mph - N/A   Clear
4:35 AM 60.8 °F - 55.4 °F 82% 29.81 in 10.0 mi South 3.5 mph - N/A   Clear
4:36 AM 60.8 °F - 55.4 °F 82% 29.81 in 10.0 mi South 4.6 mph - N/A   Clear
4:55 AM 60.8 °F - 55.4 °F 82% 29.81 in 10.0 mi SSE 3.5 mph - N/A   Clear
5:15 AM 59.0 °F - 53.6 °F 82% 29.81 in 10.0 mi South 3.5 mph - N/A   Clear
5:16 AM 60.8 °F - 55.4 °F 82% 29.81 in 10.0 mi SSE 3.5 mph - N/A   Clear
5:35 AM 60.8 °F - 53.6 °F 77% 29.80 in 10.0 mi South 6.9 mph - N/A   Clear
5:36 AM 60.8 °F - 53.6 °F 77% 29.80 in 10.0 mi South 6.9 mph - N/A   Clear
5:55 AM 60.8 °F - 53.6 °F 77% 29.80 in 10.0 mi South 5.8 mph - N/A   Clear
5:56 AM 60.8 °F - 53.6 °F 77% 29.80 in 10.0 mi South 5.8 mph - N/A   Clear
6:16 AM 60.8 °F - 53.6 °F 77% 29.80 in 10.0 mi SSE 5.8 mph - N/A   Clear
6:35 AM 62.6 °F - 55.4 °F 77% 29.79 in 10.0 mi SSE 5.8 mph - N/A   Clear
6:36 AM 62.6 °F - 55.4 °F 77% 29.79 in 10.0 mi SSE 5.8 mph - N/A   Clear
6:55 AM 62.6 °F - 55.4 °F 77% 29.80 in 10.0 mi SSE 5.8 mph - N/A   Clear
6:56 AM 62.6 °F - 55.4 °F 77% 29.80 in 10.0 mi SSE 5.8 mph - N/A   Clear
7:16 AM 64.4 °F - 55.4 °F 73% 29.80 in 10.0 mi South 5.8 mph - N/A   Clear
7:35 AM 64.4 °F - 55.4 °F 73% 29.80 in 10.0 mi South 8.1 mph - N/A   Clear
7:55 AM 66.2 °F - 55.4 °F 68% 29.80 in 10.0 mi South 4.6 mph - N/A   Clear
7:56 AM 66.2 °F - 55.4 °F 68% 29.80 in 10.0 mi South 6.9 mph - N/A   Clear
8:15 AM 68.0 °F - 55.4 °F 64% 29.79 in 10.0 mi South 8.1 mph - N/A   Clear
8:35 AM 69.8 °F - 55.4 °F 60% 29.79 in 10.0 mi South 5.8 mph - N/A   Clear
8:55 AM 71.6 °F - 57.2 °F 60% 29.79 in 10.0 mi South 6.9 mph - N/A   Clear
8:57 AM 71.6 °F - 57.2 °F 60% 29.79 in 10.0 mi South 9.2 mph - N/A   Clear
9:15 AM 71.6 °F - 57.2 °F 60% 29.78 in 10.0 mi South 10.4 mph - N/A   Clear
9:16 AM 71.6 °F - 57.2 °F 60% 29.78 in 10.0 mi South 9.2 mph - N/A   Clear
9:35 AM 71.6 °F - 57.2 °F 60% 29.78 in 10.0 mi SSE 6.9 mph - N/A   Clear
9:55 AM 73.4 °F - 59.0 °F 61% 29.77 in 10.0 mi SSE 9.2 mph - N/A   Clear
9:56 AM 73.4 °F - 59.0 °F 61% 29.77 in 10.0 mi SE 9.2 mph - N/A   Clear
10:15 AM 75.2 °F - 60.8 °F 61% 29.77 in 10.0 mi South 6.9 mph - N/A   Clear
10:16 AM 75.2 °F - 60.8 °F 61% 29.77 in 10.0 mi SSE 8.1 mph - N/A   Clear
10:35 AM 75.2 °F - 60.8 °F 61% 29.77 in 10.0 mi SSE 6.9 mph - N/A   Clear
10:55 AM 77.0 °F - 60.8 °F 57% 29.76 in 10.0 mi South 6.9 mph - N/A   Clear
10:56 AM 77.0 °F - 60.8 °F 57% 29.76 in 10.0 mi South 8.1 mph - N/A   Clear
11:15 AM 77.0 °F - 60.8 °F 57% 29.75 in 10.0 mi SE 9.2 mph - N/A   Clear
11:35 AM 78.8 °F - 62.6 °F 57% 29.75 in 10.0 mi SSE 5.8 mph - N/A   Clear
11:36 AM 78.8 °F - 62.6 °F 57% 29.75 in 10.0 mi South 4.6 mph - N/A   Clear
11:55 AM 78.8 °F - 62.6 °F 57% 29.74 in 10.0 mi South 8.1 mph - N/A   Clear
11:57 AM 80.6 °F 81.8 °F 62.6 °F 54% 29.74 in 10.0 mi South 8.1 mph - N/A   Clear
12:15 PM 80.6 °F 81.8 °F 62.6 °F 54% 29.73 in 10.0 mi SSE 4.6 mph - N/A   Clear
12:16 PM 80.6 °F 81.8 °F 62.6 °F 54% 29.74 in 10.0 mi South 3.5 mph - N/A   Clear
12:35 PM 80.6 °F 81.8 °F 62.6 °F 54% 29.73 in 10.0 mi SE 6.9 mph - N/A   Clear
12:37 PM 80.6 °F 81.8 °F 62.6 °F 54% 29.73 in 10.0 mi SSE 4.6 mph - N/A   Clear
12:55 PM 82.4 °F 83.9 °F 64.4 °F 54% 29.72 in 10.0 mi South 6.9 mph - N/A   Clear
1:15 PM 82.4 °F 83.9 °F 64.4 °F 54% 29.71 in 10.0 mi SSE 6.9 mph - N/A   Clear
1:16 PM 82.4 °F 83.9 °F 64.4 °F 54% 29.71 in 10.0 mi SSE 8.1 mph - N/A   Clear
1:36 PM 84.2 °F 85.6 °F 64.4 °F 51% 29.72 in 10.0 mi SSE 4.6 mph - N/A   Clear
1:55 PM 84.2 °F 85.6 °F 64.4 °F 51% 29.71 in 10.0 mi SSW 5.8 mph - N/A   Clear
2:15 PM 84.2 °F 85.6 °F 64.4 °F 51% 29.71 in 10.0 mi SSW 5.8 mph - N/A   Clear
2:35 PM 80.6 °F 82.3 °F 64.4 °F 58% 29.71 in 10.0 mi SSW 5.8 mph - N/A   Scattered Clouds
2:36 PM 80.6 °F 82.3 °F 64.4 °F 58% 29.71 in 10.0 mi SSW 5.8 mph - N/A   Scattered Clouds
2:55 PM 73.4 °F - 60.8 °F 65% 29.72 in 10.0 mi WSW 19.6 mph 28.8 mph N/A Rain , Thunderstorm Light Thunderstorms and Rain
3:15 PM 66.2 °F - 62.6 °F 88% 29.70 in 1.2 mi South 6.9 mph - N/A Rain , Thunderstorm Heavy Thunderstorms and Rain
3:16 PM 66.2 °F - 62.6 °F 88% 29.70 in 1.2 mi South 6.9 mph - N/A Rain , Thunderstorm Heavy Thunderstorms and Rain
3:35 PM 66.2 °F - 62.6 °F 88% 29.66 in 10.0 mi East 9.2 mph - N/A Rain Light Rain
3:55 PM 66.2 °F - 64.4 °F 94% 29.71 in 10.0 mi SW 8.1 mph - N/A Rain Rain
3:56 PM 66.2 °F - 64.4 °F 94% 29.72 in 10.0 mi SW 10.4 mph 18.4 mph N/A Rain Rain
4:15 PM 66.2 °F - 60.8 °F 83% 29.73 in 10.0 mi WSW 8.1 mph 16.1 mph N/A Rain Light Rain
4:16 PM 66.2 °F - 60.8 °F 83% 29.73 in 10.0 mi WSW 6.9 mph - N/A Rain Light Rain
4:35 PM 66.2 °F - 62.6 °F 88% 29.71 in 5.0 mi South 8.1 mph - N/A Rain Rain
4:55 PM 64.4 °F - 62.6 °F 94% 29.68 in 10.0 mi SW 3.5 mph - N/A Rain , Thunderstorm Rain
5:15 PM 64.4 °F - 62.6 °F 94% 29.65 in 10.0 mi SSW 3.5 mph - N/A Rain Light Rain
5:16 PM 64.4 °F - 62.6 °F 94% 29.64 in 10.0 mi SSW 3.5 mph - N/A Rain Light Rain
5:35 PM 64.4 °F - 62.6 °F 94% 29.63 in 10.0 mi South 5.8 mph - N/A   Clear
5:55 PM 66.2 °F - 62.6 °F 88% 29.62 in 10.0 mi South 6.9 mph - N/A Thunderstorm Clear
6:16 PM 66.2 °F - 62.6 °F 88% 29.62 in 10.0 mi SSW 3.5 mph - N/A   Clear
6:35 PM 66.2 °F - 62.6 °F 88% 29.62 in 10.0 mi Calm Calm - N/A   Clear
6:36 PM 66.2 °F - 62.6 °F 88% 29.62 in 10.0 mi Calm Calm - N/A   Clear
6:55 PM 66.2 °F - 62.6 °F 88% 29.66 in 10.0 mi Calm Calm - N/A   Clear
7:15 PM 66.2 °F - 64.4 °F 94% 29.65 in 10.0 mi Calm Calm - N/A   Clear
7:16 PM 66.2 °F - 64.4 °F 94% 29.65 in 10.0 mi Calm Calm - N/A   Clear
7:35 PM 66.2 °F - 62.6 °F 88% 29.64 in 10.0 mi NNE 5.8 mph - N/A Thunderstorm Clear
7:36 PM 66.2 °F - 62.6 °F 88% 29.64 in 10.0 mi NNE 5.8 mph - N/A Thunderstorm Clear
7:56 PM 66.2 °F - 62.6 °F 88% 29.67 in 10.0 mi Calm Calm - N/A   Clear
8:15 PM 66.2 °F - 62.6 °F 88% 29.72 in 10.0 mi South 3.5 mph - N/A   Scattered Clouds
8:35 PM 66.2 °F - 62.6 °F 88% 29.72 in 10.0 mi Calm Calm - N/A   Scattered Clouds
8:36 PM 66.2 °F - 62.6 °F 88% 29.72 in 10.0 mi Calm Calm - N/A   Scattered Clouds
8:55 PM 66.2 °F - 62.6 °F 88% 29.72 in 10.0 mi Calm Calm - N/A   Scattered Clouds
9:15 PM 66.2 °F - 64.4 °F 94% 29.72 in 2.5 mi Calm Calm - N/A   Overcast
9:35 PM 64.4 °F - 62.6 °F 94% 29.71 in 10.0 mi SE 3.5 mph - N/A Rain Light Rain
9:36 PM 64.4 °F - 62.6 °F 94% - 10.0 mi SE 4.6 mph - N/A Rain Light Rain
9:55 PM 64.4 °F - 62.6 °F 94% 29.69 in 10.0 mi ESE 3.5 mph - N/A   Clear
10:15 PM 64.4 °F - 62.6 °F 94% 29.68 in 10.0 mi SSW 5.8 mph - N/A   Clear
10:16 PM 64.4 °F - 62.6 °F 94% 29.68 in 10.0 mi SSW 4.6 mph - N/A   Clear
10:35 PM 64.4 °F - 62.6 °F 94% 29.67 in 10.0 mi SSW 4.6 mph - N/A   Clear
10:55 PM 64.4 °F - 62.6 °F 94% 29.68 in 10.0 mi Calm Calm - N/A   Clear
11:15 PM 64.4 °F - 62.6 °F 94% 29.71 in 10.0 mi Calm Calm - N/A   Clear
11:36 PM 64.4 °F - 62.6 °F 94% 29.74 in 10.0 mi NW 8.1 mph - N/A   Mostly Cloudy
11:55 PM 64.4 °F - 62.6 °F 94% 29.74 in 10.0 mi NNW 4.6 mph - N/A Rain Light Rain
11:56 PM 64.4 °F - 62.6 °F 94% 29.74 in 10.0 mi NNW 5.8 mph - N/A Rain Light Rain